• In Moldova, Republic
  • List of Countries
  • For 7 days
  • Water Temperature
  • Satellite Maps
  • Weather Map
  • Weather Widgets
  • user-avatar
    Login

    Hourly Weather Korçe

    Today, 22 February, Thursday

    Time Temperature Precipitation Wind Pressure Humidity
    00:00 +2°C° 0.7 mm 2 mps 657 mmHg 92%
    01:00 +1°C° 0 mm 3 mps 657 mmHg 92%
    02:00 +1°C° 0.4 mm 3 mps 657 mmHg 92%
    03:00 +2°C° 0.4 mm 2 mps 657 mmHg 92%
    04:00 +1°C° 0.4 mm 2 mps 657 mmHg 92%
    05:00 +1°C° 0 mm 2 mps 657 mmHg 92%
    06:00 +1°C° 0 mm 2 mps 658 mmHg 91%
    07:00 +1°C° 0 mm 2 mps 658 mmHg 91%
    08:00 +3°C° 0 mm 2 mps 658 mmHg 88%
    09:00 +4°C° 0 mm 2 mps 659 mmHg 85%
    10:00 +5°C° 0 mm 2 mps 660 mmHg 82%
    11:00 +6°C° 0 mm 2 mps 660 mmHg 80%
    12:00 +5°C° 0 mm 3 mps 660 mmHg 77%
    13:00 +7°C° 0 mm 3 mps 660 mmHg 75%
    14:00 +7°C° 0.1 mm 2 mps 660 mmHg 76%
    15:00 +6°C° 0.1 mm 2 mps 660 mmHg 76%
    16:00 +6°C° 0.1 mm 2 mps 660 mmHg 77%
    17:00 +5°C° 0 mm 2 mps 660 mmHg 81%
    18:00 +4°C° 0 mm 2 mps 660 mmHg 85%
    19:00 +3°C° 0 mm 2 mps 660 mmHg 89%
    20:00 +3°C° 0 mm 2 mps 660 mmHg 89%
    21:00 +3°C° 0 mm 2 mps 660 mmHg 90%
    22:00 +3°C° 0 mm 2 mps 660 mmHg 90%
    23:00 +2°C° 0 mm 2 mps 660 mmHg 91%

    Tomorrow, 23 February, Friday

    Time Temperature Precipitation Wind Pressure Humidity
    00:00 +2°C° 0 mm 2 mps 660 mmHg 91%
    01:00 +2°C° 0 mm 2 mps 660 mmHg 91%
    02:00 +2°C° 0 mm 2 mps 660 mmHg 91%
    03:00 +2°C° 0 mm 2 mps 660 mmHg 91%
    04:00 +2°C° 0 mm 2 mps 660 mmHg 90%
    05:00 +2°C° 0 mm 2 mps 660 mmHg 90%
    06:00 +2°C° 0 mm 2 mps 660 mmHg 90%
    07:00 +2°C° 0 mm 2 mps 660 mmHg 90%
    08:00 +3°C° 0 mm 2 mps 660 mmHg 85%
    09:00 +5°C° 0 mm 2 mps 661 mmHg 81%
    10:00 +6°C° 0 mm 2 mps 661 mmHg 76%
    11:00 +5°C° 0 mm 3 mps 661 mmHg 74%
    12:00 +7°C° 0 mm 3 mps 661 mmHg 71%
    13:00 +8°C° 0 mm 3 mps 661 mmHg 69%
    14:00 +7°C° 0 mm 3 mps 661 mmHg 70%
    15:00 +7°C° 0 mm 3 mps 661 mmHg 72%
    16:00 +7°C° 0 mm 3 mps 660 mmHg 73%
    17:00 +5°C° 0 mm 3 mps 660 mmHg 77%
    18:00 +5°C° 0 mm 2 mps 660 mmHg 81%
    19:00 +4°C° 0 mm 2 mps 660 mmHg 85%
    20:00 +3°C° 0 mm 2 mps 660 mmHg 86%
    21:00 +2°C° 0 mm 3 mps 660 mmHg 87%
    22:00 +2°C° 0 mm 3 mps 660 mmHg 88%
    23:00 +2°C° 0 mm 3 mps 659 mmHg 88%

    Day after tomorrow, 24 February, Saturday

    Time Temperature Precipitation Wind Pressure Humidity
    00:00 +2°C° 0 mm 3 mps 659 mmHg 88%
    01:00 +2°C° 0 mm 3 mps 659 mmHg 88%
    02:00 +2°C° 0 mm 3 mps 659 mmHg 88%
    03:00 +2°C° 0 mm 3 mps 658 mmHg 88%
    04:00 +2°C° 0 mm 3 mps 658 mmHg 88%
    05:00 +2°C° 0.1 mm 3 mps 658 mmHg 88%
    06:00 +2°C° 0.1 mm 3 mps 658 mmHg 88%
    07:00 +2°C° 0.1 mm 3 mps 658 mmHg 88%
    08:00 +3°C° 0.2 mm 2 mps 659 mmHg 85%
    09:00 +4°C° 0.2 mm 2 mps 659 mmHg 82%
    10:00 +5°C° 0.2 mm 2 mps 660 mmHg 80%
    11:00 +5°C° 0.4 mm 2 mps 660 mmHg 78%
    12:00 +5°C° 0.4 mm 2 mps 659 mmHg 77%
    13:00 +6°C° 0.4 mm 1 mps 659 mmHg 75%
    14:00 +5°C° 0.2 mm 2 mps 659 mmHg 75%
    15:00 +5°C° 0.2 mm 2 mps 659 mmHg 75%
    16:00 +5°C° 0.2 mm 2 mps 659 mmHg 75%
    17:00 +6°C° 0 mm 1 mps 659 mmHg 79%
    18:00 +5°C° 0 mm 1 mps 659 mmHg 83%
    19:00 +4°C° 0 mm 1 mps 659 mmHg 86%
    20:00 +3°C° 0 mm 1 mps 659 mmHg 86%
    21:00 +3°C° 0 mm 1 mps 660 mmHg 87%
    22:00 +3°C° 0 mm 1 mps 660 mmHg 87%
    23:00 +3°C° 0 mm 1 mps 660 mmHg 87%

    25 February, Sunday

    Time Temperature Precipitation Wind Pressure Humidity
    00:00 +2°C° 0 mm 1 mps 660 mmHg 87%
    01:00 +2°C° 0 mm 1 mps 660 mmHg 87%
    02:00 +2°C° 0 mm 1 mps 660 mmHg 87%
    03:00 +2°C° 0 mm 1 mps 660 mmHg 87%
    04:00 +2°C° 0 mm 1 mps 659 mmHg 87%
    05:00 +2°C° 0.1 mm 1 mps 660 mmHg 87%
    06:00 +1°C° 0.1 mm 2 mps 660 mmHg 87%
    07:00 +1°C° 0.1 mm 2 mps 660 mmHg 87%
    08:00 +2°C° 0.1 mm 2 mps 660 mmHg 82%
    09:00 +3°C° 0.1 mm 2 mps 661 mmHg 78%
    10:00 +5°C° 0.1 mm 2 mps 661 mmHg 73%
    11:00 +5°C° 0.2 mm 2 mps 661 mmHg 74%
    12:00 +5°C° 0.2 mm 2 mps 661 mmHg 75%
    13:00 +4°C° 0.2 mm 3 mps 660 mmHg 76%
    14:00 +4°C° 0.5 mm 3 mps 660 mmHg 78%
    15:00 +4°C° 0.5 mm 3 mps 660 mmHg 81%
    16:00 +4°C° 0.5 mm 2 mps 660 mmHg 84%
    17:00 +3°C° 0.9 mm 3 mps 660 mmHg 87%
    18:00 +2°C° 0.9 mm 3 mps 660 mmHg 90%
    19:00 +2°C° 0.9 mm 3 mps 660 mmHg 93%
    20:00 +2°C° 0.9 mm 3 mps 659 mmHg 92%
    21:00 +2°C° 0.9 mm 3 mps 659 mmHg 92%
    22:00 +2°C° 0.9 mm 3 mps 659 mmHg 92%
    23:00 +1°C° 1 mm 3 mps 658 mmHg 91%

    26 February, Monday

    Time Temperature Precipitation Wind Pressure Humidity
    00:00 +1°C° 1 mm 3 mps 657 mmHg 91%
    01:00 0°C° 1 mm 4 mps 657 mmHg 90%
    02:00 0°C° 1 mm 4 mps 656 mmHg 89%
    03:00 0°C° 1 mm 4 mps 655 mmHg 88%
    04:00 0°C° 1 mm 5 mps 654 mmHg 87%
    05:00 0°C° 2.7 mm 4 mps 653 mmHg 89%
    06:00 -1°C° 2.7 mm 4 mps 653 mmHg 91%
    07:00 -1°C° 2.7 mm 4 mps 653 mmHg 93%
    08:00 -1°C° 2.5 mm 4 mps 653 mmHg 92%
    09:00 -1°C° 2.5 mm 4 mps 653 mmHg 91%
    10:00 -1°C° 2.5 mm 4 mps 653 mmHg 90%
    11:00 0°C° 1.5 mm 3 mps 654 mmHg 91%
    12:00 0°C° 1.5 mm 3 mps 654 mmHg 93%
    13:00 +1°C° 1.5 mm 2 mps 654 mmHg 94%
    14:00 +1°C° 1.2 mm 2 mps 654 mmHg 94%
    15:00 +2°C° 1.2 mm 1 mps 654 mmHg 94%
    16:00 +2°C° 1.2 mm 1 mps 654 mmHg 94%
    17:00 +2°C° 0.3 mm 1 mps 654 mmHg 93%
    18:00 -1°C° 0.3 mm 2 mps 654 mmHg 93%
    19:00 -1°C° 0.3 mm 2 mps 654 mmHg 93%
    20:00 -1°C° 0.8 mm 2 mps 654 mmHg 93%
    21:00 -1°C° 0.8 mm 2 mps 654 mmHg 93%
    22:00 -1°C° 0.8 mm 2 mps 654 mmHg 93%
    23:00 -1°C° 1 mm 2 mps 653 mmHg 93%

    27 February, Tuesday

    Time Temperature Precipitation Wind Pressure Humidity
    00:00 -1°C° 1 mm 2 mps 653 mmHg 93%
    01:00 -1°C° 1 mm 2 mps 653 mmHg 92%
    02:00 -1°C° 0.4 mm 2 mps 653 mmHg 93%
    03:00 -1°C° 0.4 mm 2 mps 653 mmHg 93%
    04:00 -2°C° 0.4 mm 2 mps 653 mmHg 93%
    05:00 -2°C° 0.4 mm 2 mps 653 mmHg 93%
    06:00 -2°C° 0.4 mm 3 mps 653 mmHg 92%
    07:00 -2°C° 0.4 mm 3 mps 654 mmHg 92%
    08:00 -1°C° 0.3 mm 3 mps 654 mmHg 90%
    09:00 -2°C° 0.3 mm 4 mps 655 mmHg 88%
    10:00 -1°C° 0.3 mm 4 mps 655 mmHg 87%
    11:00 -1°C° 0.2 mm 4 mps 655 mmHg 85%
    12:00 -1°C° 0.2 mm 4 mps 656 mmHg 84%
    13:00 -1°C° 0.2 mm 4 mps 656 mmHg 83%
    14:00 -1°C° 0.2 mm 4 mps 656 mmHg 84%
    15:00 0°C° 0.2 mm 3 mps 656 mmHg 85%
    16:00 +1°C° 0.2 mm 2 mps 656 mmHg 87%
    17:00 -1°C° 0.2 mm 2 mps 657 mmHg 89%
    18:00 -1°C° 0.2 mm 2 mps 657 mmHg 91%
    19:00 -1°C° 0.2 mm 2 mps 657 mmHg 92%
    20:00 -1°C° 0.2 mm 2 mps 657 mmHg 93%
    21:00 -1°C° 0.2 mm 2 mps 658 mmHg 93%
    22:00 -1°C° 0.2 mm 2 mps 658 mmHg 94%
    23:00 -2°C° 0.1 mm 2 mps 658 mmHg 94%
    Show more